Flag Weather past 2 weeks in Edmundston, New Brunswick, Canada

Now
16 °F

Cold.


Feels Like: 16 °F
Forecast: 9 / 18 °F
Wind: 1 mph from West

Location: St Leonard

Current Time: Nov 28, 2014 at 8:03:41 PM

Latest Report: Nov 28, 2014 at 7:00 PM


Visibility: N/A

Pressure: 30.06 "Hg

Humidity: 93%

Dew point: 14 °F

Location of EdmundstonLocation

Historic Weather in Edmundston — Graph

°F

Edmundston temperature yesterday

Maximum temperature yesterday: 24 °F (at 12:00 AM)
Minimum temperature yesterday: 10 °F (at 11:00 PM)
Average temperature yesterday: 21 °F

Past Weeks' High & Low Weather Summary

 TemperatureHumidityPressure
High54 °F (Nov 25, 12:00 AM)100% (Nov 16, 3:00 PM)30.22 "Hg (Nov 16, 3:00 PM)
Low2 °F (Nov 28, 8:00 AM)49% (Nov 13, 6:00 PM)29.26 "Hg (Nov 18, 10:00 AM)
Average27 °F82%29.88 "Hg
* Reported Nov 13 6:00 PM — Nov 28 6:00 PM, Edmundston, Weather by CustomWeather, © 2014

Note: Actual official high and low records may vary slightly from our data, if they occured in-between our weather recording intervals... More about our weather records

Advertising

Edmundston weather history for previous 24 hours

 ConditionsComfort  
Time TempWeatherWind HumidityBarometerVisibility
6:00 PM
Nov 28
17 °FCold.No wind93%30.05 "HgN/A
5:00 PM16 °FCold.No wind92%30.03 "HgN/A
4:00 PM17 °FCold.1 mph91%30.02 "HgN/A
3:00 PM18 °FCold.1 mph92%30.01 "HgN/A
2:00 PM17 °FCold.1 mph92%30.01 "HgN/A
1:00 PM17 °FCold.2 mph92%30.01 "HgN/A
12:00 PM15 °FCold.2 mph95%30.04 "HgN/A
11:00 AM12 °FCold.1 mph93%30.06 "HgN/A
10:00 AM10 °FFrigid.1 mph93%30.07 "HgN/A
9:00 AM7 °FFrigid.No wind94%30.07 "HgN/A
8:00 AM2 °FFrigid.1 mph91%30.07 "HgN/A
7:00 AM4 °FFrigid.No wind92%30.06 "HgN/A
6:00 AM5 °FFrigid.No wind92%30.04 "HgN/A
5:00 AM8 °FFrigid.No wind100%30.04 "HgN/A
4:00 AM7 °FFrigid.1 mph92%30.03 "HgN/A
3:00 AM9 °FFrigid.1 mph92%30.04 "HgN/A
2:00 AM7 °FFrigid.1 mph93%30.03 "HgN/A
1:00 AM6 °FFrigid.No wind91%30.03 "HgN/A
12:00 AM6 °FFrigid.No wind92%30.03 "HgN/A
11:00 PM
Nov 27
10 °FFrigid.No wind92%30.03 "HgN/A
10:00 PM13 °FCold.No wind93%30.01 "HgN/A
9:00 PM13 °FCold.1 mph93%30.01 "HgN/A
8:00 PM16 °FCold.2 mph92%30.00 "HgN/A
Weather by CustomWeather, © 2014

See weather overviewHow to use our weather pages